QPF
0.00 0.00 0.00 0.00 0.00 0.00 0.00 0.01 0.02 0.03 0.03 0.02 0.03 0.03 0.03 0.02 0.02 0.01 0.01 0.03 0.03 0.03 0.03 0.03 0.03 0.03 0.03 0.04 0.03 0.02 0.03 0.03 0.02 0.03 0.03 0.03 0.02 0.01 0.01 0.01 0.01 0.01 0.01
0.00 0.00 0.00 0.00 0.00 0.00 0.01 0.02 0.02 0.03 0.04 0.03 0.03 0.02 0.02 0.02 0.02 0.02 0.01 0.03 0.05 0.04 0.05 0.05 0.05 0.05 0.05 0.06 0.04 0.04 0.03 0.03 0.03 0.03 0.03 0.03 0.03 0.02 0.01 0.01 0.01 0.01 0.01
0.02 0.02 0.01 0.00 0.00 0.01 0.02 0.02 0.02 0.03 0.03 0.04 0.04 0.03 0.02 0.02 0.02 0.03 0.02 0.02 0.03 0.04 0.05 0.06 0.07 0.09 0.09 0.09 0.07 0.07 0.06 0.05 0.04 0.03 0.02 0.02 0.02 0.02 0.01 0.02 0.02 0.02 0.02
0.03 0.02 0.02 0.01 0.00 0.01 0.01 0.02 0.02 0.03 0.03 0.03 0.03 0.03 0.03 0.03 0.02 0.02 0.02 0.01 0.01 0.01 0.03 0.06 0.07 0.07 0.08 0.09 0.09 0.09 0.09 0.07 0.05 0.03 0.02 0.02 0.03 0.02 0.02 0.02 0.02 0.01 0.01
0.05 0.04 0.03 0.02 0.01 0.02 0.02 0.02 0.02 0.02 0.03 0.03 0.02 0.02 0.03 0.04 0.02 0.01 0.01 0.01 0.01 0.01 0.01 0.03 0.05 0.05 0.06 0.10 0.12 0.14 0.11 0.08 0.05 0.04 0.03 0.03 0.03 0.02 0.02 0.02 0.02 0.01 0.01
0.06 0.06 0.05 0.04 0.04 0.04 0.03 0.02 0.01 0.01 0.03 0.04 0.03 0.02 0.03 0.04 0.04 0.03 0.01 0.01 0.01 0.01 0.01 0.01 0.02 0.03 0.05 0.09 0.11 0.12 0.11 0.08 0.07 0.05 0.04 0.03 0.03 0.03 0.03 0.02 0.02 0.01 0.01
0.09 0.10 0.06 0.05 0.03 0.03 0.03 0.02 0.02 0.02 0.03 0.03 0.03 0.02 0.02 0.02 0.02 0.02 0.02 0.01 0.01 0.01 0.01 0.01 0.02 0.02 0.03 0.04 0.05 0.08 0.11 0.11 0.09 0.07 0.05 0.04 0.04 0.03 0.03 0.03 0.02 0.02 0.02
0.10 0.10 0.08 0.05 0.04 0.03 0.03 0.03 0.03 0.03 0.03 0.02 0.02 0.02 0.01 0.01 0.01 0.01 0.01 0.02 0.02 0.03 0.02 0.02 0.02 0.02 0.02 0.01 0.02 0.04 0.06 0.08 0.10 0.08 0.06 0.05 0.05 0.04 0.04 0.04 0.03 0.02 0.02
0.08 0.07 0.07 0.05 0.04 0.03 0.02 0.02 0.03 0.03 0.03 0.02 0.01 0.01 0.00 0.00 0.01 0.00 0.00 0.01 0.01 0.02 0.01 0.01 0.02 0.02 0.02 0.01 0.01 0.01 0.03 0.04 0.06 0.07 0.07 0.06 0.05 0.04 0.04 0.04 0.04 0.04 0.03
0.08 0.07 0.07 0.06 0.06 0.04 0.03 0.03 0.02 0.02 0.02 0.02 0.01 0.00 0.00 0.00 0.00 0.00 0.00 0.00 0.01 0.01 0.01 0.00 0.00 0.00 0.00 0.00 0.01 0.01 0.01 0.02 0.03 0.04 0.06 0.06 0.05 0.04 0.03 0.03 0.04 0.04 0.04
0.07 0.08 0.07 0.06 0.05 0.03 0.03 0.02 0.01 0.01 0.01 0.01 0.01 0.00 0.00 0.00 0.00 0.00 0.00 0.00 0.00 0.00 0.00 0.00 0.00 0.00 0.00 0.00 0.00 0.01 0.01 0.01 0.01 0.02 0.03 0.03 0.03 0.03 0.02 0.02 0.02 0.03 0.04
0.07 0.07 0.05 0.04 0.04 0.04 0.03 0.02 0.01 0.01 0.01 0.01 0.00 0.00 0.00 0.00 0.00 0.00 0.00 0.00 0.00 0.00 0.00 0.00 0.00 0.01 0.00 0.00 0.00 0.00 0.00 0.00 0.01 0.00 0.01 0.01 0.01 0.01 0.01 0.01 0.01 0.02 0.03
0.05 0.08 0.08 0.05 0.05 0.05 0.04 0.03 0.02 0.01 0.01 0.01 0.01 0.00 0.00 0.00 0.00 0.00 0.00 0.00 0.00 0.00 0.00 0.00 0.01 0.00 0.00 0.00 0.00 0.00 0.00 0.01 0.00 0.00 0.00 0.00 0.00 0.00 0.00 0.01 0.01 0.01 0.01
0.04 0.05 0.09 0.08 0.06 0.05 0.03 0.03 0.03 0.02 0.01 0.01 0.01 0.01 0.00 0.00 0.00 0.00 0.00 0.00 0.00 0.00 0.00 0.00 0.00 0.00 0.00 0.00 0.00 0.00 0.00 0.00 0.00 0.00 0.00 0.00 0.00 0.00 0.00 0.00 0.00 0.00 0.00
0.06 0.06 0.07 0.06 0.06 0.04 0.03 0.02 0.02 0.02 0.01 0.01 0.01 0.01 0.01 0.00 0.00 0.00 0.00 0.00 0.00 0.01 0.01 0.00 0.00 0.00 0.00 0.00 0.00 0.00 0.00 0.00 0.00 0.00 0.00 0.00 0.00 0.00 0.00 0.00 0.00 0.00 0.00
0.06 0.05 0.06 0.05 0.05 0.04 0.03 0.03 0.03 0.02 0.02 0.02 0.01 0.01 0.01 0.00 0.00 0.00 0.00 0.00 0.00 0.01 0.01 0.00 0.00 0.00 0.00 0.00 0.00 0.00 0.00 0.00 0.01 0.01 0.01 0.00 0.00 0.00 0.00 0.00 0.00 0.00 0.00
0.03 0.04 0.05 0.05 0.06 0.05 0.05 0.05 0.04 0.04 0.03 0.03 0.03 0.02 0.01 0.00 0.01 0.00 0.00 0.00 0.01 0.01 0.01 0.00 0.00 0.00 0.00 0.00 0.00 0.00 0.00 0.00 0.01 0.01 0.01 0.01 0.01 0.01 0.00 0.00 0.00 0.00 0.00
0.05 0.04 0.04 0.04 0.05 0.07 0.07 0.06 0.05 0.06 0.05 0.04 0.03 0.03 0.02 0.02 0.02 0.02 0.02 0.01 0.01 0.01 0.01 0.00 0.00 0.00 0.00 0.00 0.00 0.00 0.00 0.00 0.00 0.01 0.01 0.01 0.01 0.01 0.01 0.00 0.00 0.00 0.00
0.06 0.06 0.06 0.06 0.07 0.07 0.08 0.07 0.07 0.06 0.06 0.05 0.03 0.03 0.03 0.04 0.03 0.03 0.02 0.02 0.02 0.02 0.01 0.01 0.00 0.00 0.00 0.00 0.00 0.00 0.01 0.01 0.01 0.01 0.01 0.01 0.01 0.01 0.01 0.00 0.00 0.00 0.00
0.07 0.06 0.08 0.10 0.10 0.09 0.09 0.10 0.12 0.11 0.11 0.10 0.08 0.06 0.05 0.04 0.04 0.04 0.04 0.03 0.03 0.02 0.02 0.01 0.00 0.00 0.00 0.00 0.00 0.01 0.01 0.01 0.01 0.01 0.01 0.01 0.01 0.01 0.01 0.01 0.00 0.00 0.00
0.09 0.08 0.09 0.10 0.11 0.11 0.11 0.11 0.13 0.17 0.17 0.14 0.11 0.08 0.06 0.06 0.06 0.07 0.06 0.05 0.04 0.04 0.03 0.02 0.02 0.01 0.01 0.01 0.01 0.01 0.01 0.01 0.01 0.01 0.01 0.01 0.01 0.01 0.01 0.01 0.01 0.01 0.01
0.11 0.11 0.10 0.12 0.12 0.10 0.11 0.12 0.13 0.13 0.13 0.11 0.08 0.07 0.07 0.06 0.06 0.08 0.09 0.09 0.08 0.08 0.08 0.07 0.05 0.04 0.02 0.02 0.02 0.01 0.01 0.01 0.01 0.01 0.01 0.01 0.01 0.01 0.01 0.01 0.01 0.01 0.01
0.10 0.13 0.13 0.13 0.12 0.12 0.12 0.13 0.15 0.13 0.11 0.09 0.08 0.07 0.07 0.06 0.07 0.08 0.10 0.12 0.11 0.11 0.10 0.08 0.06 0.04 0.03 0.03 0.03 0.02 0.02 0.02 0.02 0.02 0.03 0.02 0.02 0.02 0.02 0.02 0.03 0.03 0.02
0.12 0.11 0.12 0.11 0.11 0.11 0.11 0.11 0.11 0.11 0.11 0.09 0.08 0.07 0.06 0.06 0.07 0.08 0.10 0.10 0.09 0.08 0.07 0.06 0.05 0.04 0.04 0.04 0.03 0.03 0.04 0.04 0.04 0.04 0.04 0.04 0.03 0.03 0.03 0.04 0.04 0.03 0.03
0.12 0.12 0.10 0.10 0.11 0.12 0.11 0.09 0.09 0.10 0.11 0.10 0.09 0.08 0.08 0.08 0.08 0.07 0.06 0.05 0.06 0.05 0.05 0.05 0.04 0.03 0.04 0.04 0.04 0.04 0.03 0.04 0.03 0.02 0.03 0.03 0.02 0.02 0.03 0.03 0.04 0.04 0.03
0.14 0.14 0.13 0.12 0.11 0.11 0.11 0.11 0.11 0.10 0.10 0.10 0.10 0.09 0.09 0.08 0.06 0.05 0.04 0.04 0.05 0.05 0.05 0.04 0.04 0.04 0.03 0.03 0.04 0.04 0.04 0.05 0.05 0.04 0.03 0.04 0.05 0.06 0.07 0.07 0.07 0.06 0.05
MSLP
1017.49 1017.71 1017.82 1017.85 1017.84 1017.83 1017.88 1017.99 1018.17 1018.41 1018.68 1018.94 1019.19 1019.41 1019.60 1019.76 1019.92 1020.07 1020.23 1020.39 1020.56 1020.73 1020.89 1021.04 1021.18 1021.32 1021.46 1021.60 1021.75 1021.89 1022.02 1022.14 1022.25 1022.35 1022.45 1022.56 1022.67 1022.79 1022.91 1023.02 1023.12 1023.20 1023.25
1017.47 1017.73 1017.89 1017.96 1017.99 1018.02 1018.08 1018.21 1018.41 1018.66 1018.96 1019.26 1019.54 1019.79 1020.00 1020.16 1020.29 1020.39 1020.48 1020.59 1020.70 1020.82 1020.96 1021.12 1021.28 1021.44 1021.59 1021.74 1021.87 1021.98 1022.08 1022.17 1022.25 1022.33 1022.43 1022.54 1022.67 1022.81 1022.95 1023.08 1023.17 1023.24 1023.29
1017.32 1017.63 1017.85 1018.00 1018.11 1018.20 1018.31 1018.47 1018.69 1018.96 1019.28 1019.61 1019.92 1020.20 1020.42 1020.57 1020.67 1020.73 1020.76 1020.79 1020.84 1020.91 1021.02 1021.16 1021.32 1021.49 1021.66 1021.81 1021.93 1022.03 1022.10 1022.15 1022.20 1022.27 1022.36 1022.47 1022.61 1022.76 1022.91 1023.05 1023.15 1023.22 1023.26
1017.08 1017.44 1017.75 1017.99 1018.19 1018.36 1018.53 1018.73 1018.98 1019.27 1019.60 1019.94 1020.27 1020.57 1020.80 1020.95 1021.03 1021.05 1021.03 1020.99 1020.97 1020.99 1021.05 1021.16 1021.31 1021.49 1021.66 1021.82 1021.94 1022.02 1022.07 1022.10 1022.13 1022.17 1022.24 1022.35 1022.49 1022.64 1022.80 1022.94 1023.04 1023.12 1023.16
1016.76 1017.18 1017.58 1017.93 1018.23 1018.49 1018.73 1018.97 1019.23 1019.53 1019.85 1020.20 1020.54 1020.85 1021.09 1021.25 1021.33 1021.32 1021.25 1021.17 1021.09 1021.04 1021.06 1021.13 1021.26 1021.43 1021.60 1021.76 1021.88 1021.96 1022.00 1022.01 1022.02 1022.05 1022.11 1022.20 1022.33 1022.48 1022.63 1022.76 1022.87 1022.95 1023.00
1016.41 1016.88 1017.36 1017.81 1018.22 1018.57 1018.86 1019.14 1019.41 1019.70 1020.01 1020.35 1020.69 1021.00 1021.26 1021.44 1021.52 1021.50 1021.42 1021.29 1021.17 1021.07 1021.04 1021.07 1021.17 1021.32 1021.49 1021.64 1021.76 1021.84 1021.88 1021.89 1021.89 1021.91 1021.95 1022.03 1022.15 1022.28 1022.42 1022.55 1022.65 1022.73 1022.79
1016.06 1016.57 1017.12 1017.66 1018.14 1018.56 1018.91 1019.21 1019.49 1019.76 1020.06 1020.38 1020.71 1021.03 1021.31 1021.51 1021.61 1021.60 1021.52 1021.37 1021.21 1021.08 1020.99 1020.98 1021.04 1021.16 1021.31 1021.45 1021.57 1021.66 1021.71 1021.73 1021.73 1021.75 1021.79 1021.86 1021.96 1022.08 1022.20 1022.32 1022.41 1022.49 1022.55
1015.73 1016.26 1016.86 1017.46 1018.01 1018.48 1018.87 1019.19 1019.46 1019.72 1019.99 1020.30 1020.63 1020.96 1021.26 1021.48 1021.61 1021.63 1021.55 1021.41 1021.22 1021.05 1020.92 1020.86 1020.87 1020.94 1021.06 1021.19 1021.31 1021.40 1021.46 1021.50 1021.52 1021.55 1021.60 1021.67 1021.77 1021.88 1021.99 1022.09 1022.18 1022.24 1022.30
1015.44 1015.97 1016.59 1017.22 1017.81 1018.32 1018.74 1019.06 1019.33 1019.58 1019.85 1020.15 1020.48 1020.82 1021.14 1021.40 1021.56 1021.61 1021.55 1021.40 1021.20 1020.99 1020.81 1020.70 1020.65 1020.68 1020.75 1020.85 1020.96 1021.05 1021.12 1021.18 1021.23 1021.29 1021.36 1021.45 1021.56 1021.67 1021.77 1021.87 1021.94 1022.00 1022.05
1015.17 1015.70 1016.32 1016.96 1017.57 1018.09 1018.52 1018.86 1019.14 1019.39 1019.66 1019.96 1020.30 1020.66 1021.00 1021.29 1021.48 1021.55 1021.51 1021.36 1021.15 1020.91 1020.69 1020.51 1020.40 1020.36 1020.38 1020.44 1020.52 1020.61 1020.69 1020.77 1020.86 1020.95 1021.06 1021.18 1021.31 1021.43 1021.55 1021.64 1021.71 1021.76 1021.80
1014.92 1015.43 1016.03 1016.67 1017.27 1017.81 1018.25 1018.60 1018.89 1019.16 1019.44 1019.76 1020.11 1020.49 1020.85 1021.16 1021.38 1021.47 1021.44 1021.30 1021.07 1020.81 1020.54 1020.31 1020.14 1020.03 1019.99 1019.99 1020.03 1020.10 1020.18 1020.27 1020.39 1020.52 1020.67 1020.83 1020.99 1021.14 1021.27 1021.37 1021.45 1021.49 1021.52
1014.66 1015.15 1015.73 1016.34 1016.93 1017.46 1017.91 1018.28 1018.60 1018.90 1019.20 1019.54 1019.92 1020.31 1020.69 1021.01 1021.25 1021.36 1021.34 1021.20 1020.97 1020.69 1020.39 1020.11 1019.88 1019.71 1019.59 1019.53 1019.52 1019.55 1019.61 1019.71 1019.83 1020.00 1020.18 1020.38 1020.58 1020.77 1020.93 1021.05 1021.13 1021.18 1021.20
1014.36 1014.83 1015.38 1015.96 1016.53 1017.06 1017.52 1017.91 1018.26 1018.59 1018.93 1019.29 1019.69 1020.10 1020.49 1020.82 1021.07 1021.19 1021.18 1021.06 1020.83 1020.55 1020.24 1019.93 1019.65 1019.42 1019.24 1019.12 1019.04 1019.01 1019.04 1019.11 1019.23 1019.41 1019.61 1019.85 1020.09 1020.31 1020.50 1020.64 1020.74 1020.79 1020.81
1013.99 1014.45 1014.98 1015.54 1016.09 1016.61 1017.08 1017.49 1017.87 1018.23 1018.61 1019.00 1019.41 1019.83 1020.22 1020.55 1020.80 1020.94 1020.95 1020.85 1020.65 1020.39 1020.09 1019.77 1019.47 1019.20 1018.97 1018.77 1018.63 1018.53 1018.50 1018.53 1018.62 1018.78 1019.00 1019.25 1019.51 1019.75 1019.97 1020.13 1020.24 1020.30 1020.33
1013.56 1014.02 1014.53 1015.07 1015.61 1016.13 1016.60 1017.04 1017.44 1017.83 1018.23 1018.63 1019.05 1019.47 1019.85 1020.19 1020.44 1020.59 1020.63 1020.56 1020.41 1020.19 1019.92 1019.63 1019.33 1019.04 1018.76 1018.52 1018.30 1018.14 1018.03 1018.00 1018.05 1018.17 1018.36 1018.60 1018.86 1019.11 1019.34 1019.51 1019.63 1019.70 1019.72
1013.09 1013.55 1014.06 1014.59 1015.13 1015.64 1016.12 1016.57 1016.99 1017.39 1017.80 1018.21 1018.62 1019.02 1019.40 1019.72 1019.97 1020.13 1020.20 1020.18 1020.09 1019.93 1019.72 1019.47 1019.20 1018.91 1018.62 1018.33 1018.06 1017.83 1017.65 1017.55 1017.53 1017.60 1017.74 1017.94 1018.17 1018.41 1018.63 1018.80 1018.91 1018.98 1019.00
1012.58 1013.07 1013.59 1014.13 1014.66 1015.18 1015.66 1016.12 1016.54 1016.95 1017.36 1017.75 1018.14 1018.51 1018.86 1019.16 1019.40 1019.57 1019.68 1019.71 1019.67 1019.58 1019.44 1019.26 1019.03 1018.77 1018.48 1018.18 1017.87 1017.59 1017.34 1017.17 1017.08 1017.07 1017.15 1017.29 1017.48 1017.67 1017.85 1017.99 1018.09 1018.14 1018.16
1012.10 1012.62 1013.16 1013.72 1014.26 1014.78 1015.27 1015.73 1016.15 1016.55 1016.93 1017.29 1017.65 1017.98 1018.28 1018.55 1018.78 1018.95 1019.07 1019.14 1019.16 1019.14 1019.07 1018.95 1018.78 1018.56 1018.29 1017.99 1017.67 1017.36 1017.07 1016.84 1016.68 1016.60 1016.60 1016.67 1016.78 1016.90 1017.03 1017.12 1017.18 1017.21 1017.20
1011.68 1012.23 1012.81 1013.39 1013.96 1014.49 1014.98 1015.43 1015.84 1016.21 1016.55 1016.88 1017.18 1017.46 1017.71 1017.94 1018.13 1018.29 1018.42 1018.51 1018.57 1018.59 1018.58 1018.52 1018.40 1018.23 1018.00 1017.73 1017.42 1017.10 1016.79 1016.52 1016.30 1016.16 1016.08 1016.06 1016.09 1016.13 1016.17 1016.20 1016.21 1016.19 1016.17
1011.34 1011.94 1012.56 1013.17 1013.76 1014.31 1014.80 1015.24 1015.62 1015.96 1016.26 1016.53 1016.77 1016.99 1017.19 1017.37 1017.52 1017.65 1017.76 1017.85 1017.92 1017.97 1017.98 1017.96 1017.89 1017.77 1017.59 1017.35 1017.07 1016.77 1016.47 1016.18 1015.93 1015.73 1015.58 1015.48 1015.40 1015.35 1015.30 1015.25 1015.19 1015.13 1015.07
1011.10 1011.75 1012.41 1013.06 1013.67 1014.22 1014.71 1015.13 1015.49 1015.79 1016.05 1016.26 1016.45 1016.61 1016.76 1016.88 1016.98 1017.07 1017.15 1017.22 1017.27 1017.31 1017.33 1017.33 1017.29 1017.20 1017.06 1016.87 1016.64 1016.38 1016.10 1015.82 1015.55 1015.31 1015.09 1014.91 1014.74 1014.58 1014.44 1014.30 1014.17 1014.05 1013.97
1010.98 1011.67 1012.36 1013.04 1013.66 1014.22 1014.70 1015.10 1015.43 1015.69 1015.90 1016.07 1016.21 1016.33 1016.42 1016.50 1016.56 1016.61 1016.64 1016.67 1016.69 1016.70 1016.70 1016.68 1016.65 1016.58 1016.47 1016.33 1016.15 1015.93 1015.69 1015.43 1015.16 1014.89 1014.62 1014.35 1014.09 1013.84 1013.59 1013.36 1013.16 1013.00 1012.88
1010.97 1011.68 1012.40 1013.09 1013.72 1014.28 1014.74 1015.12 1015.41 1015.64 1015.81 1015.94 1016.05 1016.13 1016.20 1016.25 1016.28 1016.29 1016.28 1016.26 1016.24 1016.20 1016.16 1016.12 1016.07 1016.00 1015.92 1015.81 1015.67 1015.49 1015.29 1015.05 1014.78 1014.49 1014.17 1013.83 1013.48 1013.13 1012.79 1012.48 1012.21 1012.00 1011.87
1011.07 1011.79 1012.52 1013.21 1013.83 1014.37 1014.81 1015.15 1015.41 1015.61 1015.75 1015.87 1015.96 1016.04 1016.10 1016.14 1016.16 1016.15 1016.12 1016.06 1015.99 1015.91 1015.82 1015.73 1015.65 1015.57 1015.48 1015.38 1015.26 1015.12 1014.94 1014.71 1014.44 1014.12 1013.75 1013.35 1012.92 1012.49 1012.07 1011.68 1011.36 1011.12 1010.97
1011.27 1011.99 1012.71 1013.39 1013.99 1014.49 1014.89 1015.20 1015.43 1015.60 1015.73 1015.85 1015.95 1016.04 1016.12 1016.18 1016.22 1016.21 1016.17 1016.09 1015.98 1015.86 1015.72 1015.58 1015.45 1015.34 1015.23 1015.12 1015.00 1014.86 1014.68 1014.45 1014.15 1013.80 1013.39 1012.93 1012.43 1011.93 1011.45 1011.01 1010.64 1010.38 1010.22
1011.57 1012.29 1012.99 1013.64 1014.20 1014.66 1015.02 1015.29 1015.48 1015.64 1015.77 1015.89 1016.01 1016.14 1016.26 1016.37 1016.43 1016.46 1016.43 1016.34 1016.21 1016.05 1015.87 1015.69 1015.51 1015.34 1015.19 1015.05 1014.90 1014.73 1014.52 1014.26 1013.94 1013.55 1013.09 1012.58 1012.03 1011.48 1010.95 1010.47 1010.09 1009.81 1009.65
Thickness
5742 5741 5740 5740 5739 5739 5738 5736 5735 5734 5733 5732 5731 5730 5729 5728 5727 5725 5724 5723 5722 5720 5719 5717 5716 5714 5713 5712 5710 5709 5708 5707 5706 5705 5703 5702 5701 5701 5700 5699 5698 5697 5697
5740 5740 5739 5738 5738 5737 5737 5735 5734 5733 5733 5732 5731 5730 5729 5728 5726 5725 5724 5723 5722 5720 5719 5718 5716 5714 5713 5712 5710 5708 5707 5706 5705 5704 5703 5701 5700 5700 5699 5698 5697 5696 5696
5738 5738 5737 5737 5737 5736 5735 5734 5733 5732 5731 5731 5730 5729 5728 5727 5726 5725 5724 5723 5722 5720 5719 5717 5716 5715 5713 5712 5710 5709 5707 5706 5705 5704 5702 5701 5700 5699 5699 5698 5697 5696 5695
5737 5736 5735 5736 5736 5735 5734 5733 5732 5731 5730 5729 5729 5728 5727 5726 5726 5725 5724 5723 5722 5721 5719 5718 5717 5715 5714 5712 5711 5709 5708 5707 5705 5704 5703 5701 5700 5699 5699 5698 5696 5696 5695
5736 5735 5734 5734 5734 5734 5733 5732 5730 5730 5728 5728 5728 5727 5726 5726 5726 5725 5724 5723 5722 5721 5719 5718 5717 5716 5714 5713 5712 5710 5709 5708 5706 5705 5704 5702 5701 5700 5699 5698 5697 5696 5695
5735 5734 5733 5733 5733 5733 5732 5731 5729 5728 5728 5727 5728 5726 5725 5725 5725 5725 5724 5723 5722 5721 5720 5719 5718 5716 5715 5714 5713 5711 5710 5708 5707 5705 5704 5703 5702 5701 5700 5699 5698 5696 5695
5734 5733 5733 5732 5732 5732 5732 5730 5729 5727 5726 5725 5723 5721 5722 5724 5724 5724 5724 5723 5723 5722 5720 5720 5719 5717 5716 5715 5714 5712 5711 5710 5708 5707 5705 5704 5703 5701 5700 5699 5698 5697 5696
5734 5734 5733 5732 5732 5731 5730 5729 5728 5726 5725 5725 5722 5717 5715 5717 5722 5725 5724 5724 5723 5722 5722 5721 5720 5719 5718 5716 5715 5714 5713 5711 5710 5708 5707 5705 5704 5703 5701 5700 5699 5698 5697
5735 5734 5733 5732 5732 5731 5730 5729 5729 5727 5724 5723 5724 5720 5714 5711 5716 5721 5723 5723 5723 5723 5723 5722 5722 5721 5719 5718 5717 5716 5715 5713 5712 5710 5708 5707 5705 5704 5703 5701 5700 5699 5698
5734 5734 5733 5733 5732 5731 5730 5730 5729 5728 5726 5722 5722 5722 5721 5720 5715 5714 5719 5722 5723 5723 5723 5723 5723 5722 5721 5720 5718 5717 5716 5715 5713 5712 5710 5708 5707 5705 5704 5702 5701 5700 5699
5733 5733 5733 5733 5732 5731 5731 5730 5729 5728 5727 5725 5723 5721 5719 5718 5717 5715 5714 5717 5720 5723 5724 5724 5724 5723 5722 5721 5720 5719 5717 5716 5714 5713 5711 5709 5708 5706 5705 5703 5702 5701 5699
5732 5732 5732 5732 5731 5731 5730 5730 5729 5728 5727 5726 5725 5724 5722 5719 5717 5716 5714 5714 5716 5721 5724 5724 5724 5724 5723 5722 5721 5720 5718 5716 5715 5713 5711 5710 5708 5706 5705 5703 5702 5701 5699
5730 5731 5731 5731 5730 5730 5730 5729 5728 5728 5727 5726 5725 5724 5723 5723 5721 5719 5716 5714 5714 5717 5720 5723 5725 5724 5723 5722 5722 5720 5719 5717 5715 5713 5711 5710 5708 5706 5704 5703 5701 5700 5699
5731 5731 5731 5730 5729 5729 5729 5728 5727 5726 5725 5725 5725 5724 5723 5722 5722 5721 5718 5714 5712 5713 5716 5720 5723 5724 5723 5722 5721 5720 5718 5717 5715 5713 5711 5709 5707 5705 5703 5702 5700 5699 5697
5730 5730 5729 5729 5728 5727 5727 5726 5725 5725 5724 5723 5723 5723 5722 5722 5721 5721 5720 5718 5714 5709 5711 5716 5719 5722 5722 5721 5720 5718 5717 5716 5714 5712 5710 5708 5706 5704 5702 5700 5699 5697 5695
5729 5728 5728 5727 5727 5726 5725 5724 5724 5723 5722 5721 5721 5720 5720 5721 5720 5719 5718 5717 5716 5713 5710 5714 5716 5719 5719 5719 5718 5716 5715 5714 5712 5710 5708 5706 5704 5702 5700 5698 5696 5695 5693
5728 5728 5727 5726 5725 5724 5723 5722 5721 5720 5720 5719 5719 5719 5719 5719 5718 5717 5716 5715 5713 5712 5709 5712 5712 5714 5714 5714 5714 5713 5712 5710 5709 5707 5705 5703 5701 5699 5697 5695 5694 5692 5691
5728 5727 5726 5725 5724 5723 5722 5720 5719 5719 5718 5717 5717 5716 5716 5716 5715 5714 5713 5712 5711 5710 5709 5707 5708 5708 5709 5709 5709 5707 5707 5706 5704 5704 5702 5700 5698 5696 5694 5692 5690 5689 5687
5727 5726 5724 5722 5722 5721 5720 5720 5719 5718 5716 5716 5715 5714 5713 5712 5711 5711 5710 5709 5708 5708 5706 5704 5703 5703 5703 5703 5702 5701 5701 5699 5699 5698 5697 5696 5694 5692 5690 5688 5686 5685 5683
5725 5723 5722 5720 5720 5719 5718 5717 5716 5715 5714 5713 5713 5712 5711 5710 5709 5708 5707 5706 5704 5702 5700 5698 5697 5696 5696 5695 5694 5693 5693 5693 5692 5692 5691 5689 5688 5687 5685 5683 5681 5680 5678
5722 5720 5719 5717 5716 5715 5714 5714 5713 5712 5711 5709 5709 5708 5708 5707 5706 5705 5703 5702 5700 5697 5695 5693 5691 5689 5688 5686 5685 5685 5684 5685 5685 5684 5683 5682 5680 5679 5678 5676 5674 5673 5671
5718 5716 5714 5713 5712 5712 5711 5711 5710 5708 5707 5705 5704 5704 5703 5702 5701 5700 5698 5697 5695 5692 5689 5686 5684 5682 5681 5679 5678 5677 5675 5674 5675 5676 5672 5673 5671 5670 5669 5667 5666 5664 5663
5712 5710 5709 5708 5706 5706 5706 5705 5704 5703 5702 5701 5699 5698 5697 5697 5695 5693 5692 5690 5688 5685 5684 5681 5679 5677 5674 5673 5670 5669 5667 5665 5666 5666 5662 5664 5662 5660 5660 5658 5657 5655 5653
5705 5704 5703 5702 5700 5699 5699 5699 5698 5698 5696 5695 5694 5692 5690 5688 5687 5686 5684 5681 5679 5676 5675 5673 5671 5669 5667 5665 5662 5660 5658 5656 5656 5654 5652 5651 5654 5652 5651 5648 5647 5644 5642
5699 5697 5696 5695 5693 5693 5693 5693 5692 5691 5689 5688 5686 5683 5682 5680 5678 5677 5675 5672 5669 5666 5664 5663 5661 5659 5657 5655 5652 5650 5647 5644 5644 5644 5640 5638 5640 5639 5639 5638 5635 5632 5630
5694 5691 5689 5688 5686 5685 5685 5685 5685 5684 5681 5678 5675 5673 5671 5669 5668 5666 5664 5662 5659 5656 5653 5651 5649 5647 5645 5643 5640 5637 5635 5631 5630 5629 5627 5623 5624 5622 5623 5624 5621 5618 5615